[[{"header":{"parameterUnit":"m.s-1","parameterCategory":1,"la1":30.2991,"la2":30.254,"lo1":-89.0895,"lo2":-89.0444,"dy":0.0017,"dx":0.0017,"nx":28,"ny":28,"refTime":"2023-08-22T03:00:00:Z","depth":0,"parameterNumber":2,"parameterNumberName":"U-component_of_WINDS"},"data":[0,0,0,0,0,0,0,0,0,0,0,0,0,0,0,0,0,0,0,0,0,0,0,0,0,0,0,0,0,0,0,0,0,0,0,0,0,0,0,0,0,0,0,0,0,0,0,0,0,0,0,0,0,0,0,0,0,0,2.7771,2.7772,0,2.7909,2.7911,2.7912,2.7943,2.7942,2.7941,2.794,2.808,2.8084,2.8089,0,0,0,0,0,0,0,0,0,0,0,0,0,2.753,2.7534,2.7771,2.7772,2.7774,2.7909,2.7911,2.7913,2.7943,2.7942,2.7941,2.794,2.8078,2.8084,2.8089,0,0,0,0,0,0,0,0,0,0,0,0,0,2.7648,2.7536,2.777,2.7806,2.781,2.7909,2.7911,2.7913,2.7944,2.7942,2.7941,2.7939,2.8077,2.8083,2.809,2.8163,0,0,2.8111,2.8114,0,0,0,0,0,0,0,0,2.7641,2.7657,2.7799,2.7803,2.7809,2.7907,2.7877,2.7997,2.7944,2.7893,2.794,2.7939,2.8024,2.8035,2.8064,2.8169,2.8175,2.8112,2.8116,2.8119,2.8121,0,0,0,0,0,0,0,2.7633,2.7651,2.7825,2.7801,2.7807,2.7814,2.7829,2.79,2.7965,2.7897,2.79,2.7916,2.8026,2.8057,2.8067,2.8177,2.8112,2.8118,2.8122,2.8125,2.8347,2.8349,0,0,0,0,0,0,2.7619,2.7644,2.7821,2.783,2.772,2.7819,2.7836,2.7877,2.7964,2.7976,2.7917,2.7917,2.8046,2.8059,2.8072,2.8162,2.8119,2.8126,2.813,2.8346,2.8348,2.835,0,0,0,0,0,0,2.7614,2.7634,2.7815,2.7738,2.7761,2.7825,2.7871,2.7881,2.7912,2.7979,2.799,2.7937,2.8045,2.8063,2.814,2.8167,2.8129,2.8135,2.8344,2.8346,2.8349,2.8341,0,0,0,0,0,0,2.7607,2.7632,2.7661,2.7738,2.7765,2.7881,2.7872,2.7884,2.7924,2.7925,2.8001,2.8012,2.8046,2.8129,2.8147,2.8176,2.8141,2.8341,2.8345,2.8348,2.8339,2.8343,2.8346,0,0,0,0,0,2.7598,2.7653,2.7662,2.7683,2.7802,2.7882,2.7898,2.7936,2.7926,2.7955,2.7998,2.801,2.8162,2.8137,2.8157,2.8188,2.834,2.8344,2.8348,2.8337,2.8342,2.8346,0,0,0,0,0,0,2.7577,2.7664,2.7675,2.7757,2.7812,2.7887,2.7925,2.794,2.7999,2.7997,2.8041,2.8058,2.8132,2.8168,2.8139,2.8262,2.825,2.8258,2.8235,2.8241,2.8244,2.8233,2.8146,0,0,0,0,0,2.7582,2.764,2.7713,2.7778,2.7805,2.786,2.7897,2.7921,2.798,2.8003,2.8052,2.8108,2.8168,2.8207,2.8266,2.8345,2.8361,2.8377,2.838,2.8383,2.8389,2.8432,2.8439,2.8362,2.8362,2.8362,0,0,2.7592,2.7647,2.7681,2.7775,2.7821,2.7879,2.788,2.7942,2.7985,2.8013,2.8088,2.8126,2.8191,2.8269,2.8306,2.8301,2.8414,2.8388,2.8389,2.8394,2.8436,2.8443,2.845,2.8365,2.8365,2.8364,0,0,2.7641,2.7689,2.7748,2.7794,2.7864,2.79,2.7914,2.7988,2.8014,2.8091,2.8112,2.8164,2.8267,2.8312,2.8349,2.8415,2.8427,2.8433,2.8451,2.8493,2.8499,2.8504,2.8526,2.8534,2.8439,2.8439,2.8439,0,2.7644,2.7735,2.7776,2.7837,2.7877,2.7906,2.7965,2.8008,2.8092,2.8119,2.8113,2.8243,2.8289,2.8377,2.8393,2.8423,2.8439,2.8424,2.8495,2.8501,2.8506,2.8528,2.8536,2.8439,2.8439,2.8439,2.8439,0,2.7735,2.7797,2.7836,2.7918,2.7963,2.8023,2.8072,2.8113,2.8134,2.817,2.8247,2.8304,2.8374,2.8398,2.8419,2.8489,2.8484,2.8486,2.8474,2.8513,2.8534,2.8542,2.844,2.844,2.844,2.8439,0,0,2.7772,2.7877,2.7891,2.7928,2.8007,2.8055,2.8116,2.8186,2.8219,2.8277,2.8328,2.8415,2.8417,2.8458,2.8485,2.8522,2.8568,2.8519,2.8522,2.8525,2.8647,2.8643,2.8652,2.8578,2.858,2.8581,2.8641,0,2.7829,2.7939,2.7979,2.8069,2.8126,2.8154,2.8207,2.8261,2.8297,2.835,2.8389,2.8449,2.8449,2.8474,2.8512,2.8554,2.8593,2.8551,2.8624,2.8626,2.8605,2.8663,2.866,2.8713,2.8649,2.8651,2.8652,0,2.7909,2.7969,2.8065,2.8137,2.8162,2.8209,2.8275,2.8327,2.8388,2.8411,2.8458,2.8482,2.8545,2.8531,2.8619,2.8589,2.8622,2.8648,2.8651,2.8657,2.864,2.8669,2.8731,2.8738,2.8665,2.8664,2.8663,0,2.7924,2.8029,2.81,2.8131,2.8217,2.8249,2.8286,2.8346,2.8385,2.8443,2.8469,2.8534,2.8569,2.8618,2.8658,2.8645,2.8742,2.8731,2.8761,2.876,2.8779,2.8777,2.8845,2.8803,2.8803,2.8803,2.8803,0,2.7982,2.8039,2.8107,2.815,2.8215,2.826,2.8322,2.8361,2.8414,2.8465,2.8494,2.854,2.8592,2.8645,2.8677,2.8744,2.876,2.878,2.8787,2.8776,2.8773,2.8796,2.8793,2.8805,2.8805,2.8804,2.8804,0,2.8009,2.8057,2.8136,2.8211,2.8231,2.8275,2.8339,2.8382,2.8419,2.8483,2.85,2.8559,2.8623,2.8669,2.8751,2.8773,2.8844,2.8852,2.8823,2.8826,2.8853,2.8849,2.8937,2.895,2.8901,2.8901,2.8902,0,2.8041,2.8086,2.8167,2.8203,2.824,2.8298,2.8339,2.8385,2.8425,2.8498,2.8532,2.8598,2.8653,2.8753,2.8803,2.8866,2.8875,2.8901,2.8884,2.8871,2.8873,2.8869,2.8873,2.8903,2.8903,2.8903,2.8904,0,2.8094,2.8115,2.8173,2.8239,2.8287,2.8341,2.8395,2.8423,2.8478,2.8522,2.8588,2.8631,2.8715,2.878,2.8848,2.8885,2.8903,2.8909,2.8919,2.8907,2.8887,2.8896,2.8827,2.8906,2.8906,2.8906,2.8905,2.8905,2.8123,2.8164,2.8227,2.829,2.8336,2.8386,2.8429,2.8473,2.8529,2.8601,2.8625,2.8693,2.8753,2.8846,2.8884,2.8937,2.8936,2.8951,2.8954,2.8957,2.8955,2.888,2.895,2.895,2.895,2.895,2.895,0,2.8175,2.8217,2.8275,2.835,2.84,2.8414,2.8475,2.8515,2.8574,2.8629,2.8683,2.8758,2.8821,2.8876,2.8941,2.8973,2.8983,2.8988,2.8985,2.8993,2.8953,2.8937,2.8979,2.8979,2.8979,2.8979,2.8979,2.8979,2.8208,2.8277,2.8306,2.8398,2.844,2.8507,2.854,2.8586,2.863,2.8713,2.8766,2.8802,2.8856,2.8926,2.8984,2.8998,2.902,2.9023,2.9039,2.9,2.8996,2.8993,2.8978,2.9028,2.9028,2.9075,2.9075,2.9075]},{"header":{"parameterUnit":"m.s-1","parameterCategory":1,"la1":30.2991,"la2":30.254,"lo1":-89.0895,"lo2":-89.0444,"dy":0.0017,"dx":0.0017,"nx":28,"ny":28,"refTime":"2023-08-22T03:00:00:Z","depth":0,"parameterNumber":3,"parameterNumberName":"V-component_of_WINDS"},"data":[0,0,0,0,0,0,0,0,0,0,0,0,0,0,0,0,0,0,0,0,0,0,0,0,0,0,0,0,0,0,0,0,0,0,0,0,0,0,0,0,0,0,0,0,0,0,0,0,0,0,0,0,0,0,0,0,0,0,3.0925,3.0924,0,3.0891,3.0891,3.089,3.0873,3.0873,3.0873,3.0874,3.0834,3.0833,3.0832,0,0,0,0,0,0,0,0,0,0,0,0,0,3.097,3.0969,3.0925,3.0924,3.0924,3.0891,3.0891,3.089,3.0873,3.0873,3.0873,3.0874,3.0834,3.0833,3.0832,0,0,0,0,0,0,0,0,0,0,0,0,0,3.0944,3.0969,3.0925,3.0912,3.091,3.0891,3.0891,3.089,3.0873,3.0873,3.0873,3.0874,3.0835,3.0833,3.0831,3.0821,0,0,3.0827,3.0826,0,0,0,0,0,0,0,0,3.0946,3.0943,3.0914,3.0913,3.0911,3.0887,3.0892,3.0867,3.0873,3.0887,3.0874,3.0874,3.0851,3.0848,3.0842,3.0819,3.0818,3.0826,3.0825,3.0825,3.0824,0,0,0,0,0,0,0,3.0948,3.0944,3.0911,3.0914,3.0912,3.0906,3.0902,3.0887,3.0869,3.0886,3.0885,3.0881,3.085,3.0843,3.084,3.0817,3.0826,3.0825,3.0824,3.0823,3.0785,3.0784,0,0,0,0,0,0,3.0952,3.0946,3.0912,3.091,3.0929,3.0905,3.0901,3.0894,3.0869,3.0866,3.0881,3.0881,3.0846,3.0842,3.0839,3.0825,3.0825,3.0823,3.0822,3.0785,3.0785,3.0784,0,0,0,0,0,0,3.0953,3.0949,3.0914,3.0928,3.0923,3.0904,3.0897,3.0894,3.0887,3.0866,3.0862,3.0878,3.0846,3.0841,3.0826,3.0824,3.0823,3.0821,3.0785,3.0785,3.0784,3.0798,0,0,0,0,0,0,3.0955,3.095,3.0947,3.0928,3.0922,3.0903,3.0897,3.0893,3.0885,3.0883,3.0862,3.0858,3.0845,3.0829,3.0825,3.0822,3.082,3.0785,3.0785,3.0784,3.0798,3.0799,3.0799,0,0,0,0,0,3.0956,3.0951,3.0947,3.0943,3.0918,3.0903,3.0899,3.0887,3.0885,3.0881,3.0867,3.0859,3.0825,3.0827,3.0823,3.0819,3.0785,3.0785,3.0785,3.0798,3.0799,3.0799,0,0,0,0,0,0,3.0969,3.0948,3.0944,3.0932,3.092,3.09,3.0895,3.0888,3.0874,3.0873,3.0856,3.0851,3.0838,3.0827,3.083,3.0808,3.0804,3.0803,3.0816,3.0816,3.0817,3.082,3.0819,0,0,0,0,0,3.0971,3.0962,3.0943,3.0935,3.0929,3.0913,3.0906,3.0898,3.0883,3.0877,3.0862,3.0847,3.0833,3.0824,3.081,3.0796,3.0791,3.0792,3.0792,3.0793,3.0792,3.0784,3.0784,3.0784,3.0784,3.0784,0,0,3.0974,3.0961,3.0956,3.0937,3.0927,3.0916,3.0909,3.0898,3.0889,3.0875,3.086,3.0849,3.083,3.0816,3.0809,3.0807,3.0791,3.0793,3.0793,3.0792,3.0783,3.0783,3.0783,3.0784,3.0784,3.0784,0,0,3.0974,3.0964,3.0956,3.0946,3.093,3.092,3.0918,3.0899,3.0892,3.0877,3.0866,3.0855,3.0831,3.0818,3.0809,3.0805,3.0796,3.08,3.0804,3.0796,3.0796,3.0796,3.0794,3.0793,3.0799,3.0799,3.08,0,3.0979,3.0964,3.0953,3.0943,3.0934,3.0922,3.0913,3.0903,3.0883,3.0877,3.0875,3.0845,3.0832,3.0814,3.0813,3.0806,3.0802,3.0803,3.0797,3.0797,3.0796,3.0794,3.0794,3.08,3.08,3.08,3.08,0,3.0971,3.0961,3.0957,3.094,3.093,3.0921,3.0906,3.0898,3.089,3.088,3.0864,3.0848,3.0831,3.0826,3.0817,3.0807,3.0806,3.0801,3.0796,3.0797,3.0795,3.0794,3.0801,3.0801,3.0801,3.08,0,0,3.0978,3.0956,3.0954,3.0946,3.0928,3.0919,3.0908,3.0893,3.0886,3.0872,3.0863,3.0843,3.0838,3.0827,3.0817,3.081,3.0807,3.0805,3.0805,3.0806,3.0794,3.0799,3.0798,3.0802,3.0801,3.0801,3.0796,0,3.0976,3.0959,3.0948,3.0934,3.0924,3.0912,3.0903,3.089,3.088,3.0868,3.0856,3.0842,3.0837,3.0831,3.0823,3.0809,3.0805,3.0809,3.0791,3.079,3.0796,3.0797,3.0801,3.0797,3.0795,3.0795,3.0795,0,3.0971,3.0959,3.0945,3.0929,3.0924,3.0916,3.0901,3.0891,3.0875,3.0868,3.0856,3.0846,3.0833,3.083,3.0811,3.0815,3.0806,3.0798,3.0798,3.0795,3.0792,3.0794,3.0795,3.0795,3.0793,3.0793,3.0793,0,3.0977,3.0958,3.0947,3.0941,3.0921,3.0915,3.0907,3.0891,3.0883,3.0869,3.0863,3.0847,3.0838,3.0825,3.0811,3.081,3.0793,3.0789,3.0785,3.0786,3.0782,3.0782,3.0782,3.0777,3.0777,3.0777,3.0777,0,3.0975,3.0967,3.095,3.0943,3.0933,3.092,3.091,3.09,3.0886,3.0876,3.0864,3.0855,3.0836,3.0824,3.0812,3.0798,3.0794,3.0786,3.0783,3.0787,3.0788,3.0781,3.0781,3.0777,3.0777,3.0777,3.0777,0,3.0981,3.0969,3.0956,3.0939,3.0935,3.0928,3.0912,3.0904,3.0894,3.0881,3.0877,3.086,3.0844,3.0829,3.0807,3.0799,3.0785,3.0781,3.0791,3.079,3.0787,3.0787,3.0782,3.078,3.0777,3.0777,3.0777,0,3.0981,3.0974,3.0957,3.095,3.0942,3.0931,3.0923,3.0909,3.0901,3.0883,3.0877,3.0861,3.0848,3.0824,3.0808,3.0792,3.0787,3.0786,3.0784,3.0789,3.0787,3.0787,3.0786,3.0787,3.0787,3.0787,3.0787,0,3.0981,3.0976,3.0965,3.0953,3.0943,3.0932,3.092,3.0915,3.0899,3.0889,3.0875,3.0865,3.0844,3.0829,3.081,3.0799,3.079,3.0788,3.0786,3.079,3.0796,3.0793,3.0793,3.0788,3.0788,3.0788,3.0788,3.0788,3.0983,3.0977,3.0964,3.0953,3.0943,3.0932,3.0924,3.0913,3.0901,3.0885,3.0877,3.0862,3.0846,3.0821,3.081,3.0797,3.0794,3.0792,3.0791,3.0791,3.0792,3.0799,3.0794,3.0794,3.0793,3.0793,3.0793,0,3.0983,3.0975,3.0964,3.0949,3.094,3.0934,3.092,3.0912,3.09,3.0887,3.0875,3.0858,3.0842,3.0826,3.0809,3.0802,3.0797,3.0798,3.0798,3.0795,3.0795,3.0798,3.0802,3.0802,3.0802,3.0802,3.0802,3.0802,3.0982,3.0972,3.0965,3.0948,3.0939,3.0926,3.0919,3.0909,3.0898,3.088,3.0868,3.0858,3.0843,3.0825,3.081,3.0806,3.08,3.0802,3.0796,3.0796,3.0795,3.0795,3.0798,3.0801,3.0801,3.0797,3.0797,3.0797]}]]